Saranac Lake, NY

11:30 PM EDT on March 24, 2017 (GMT -0400)
Adirondack Regional

Weather History for KSLK - December, 2013

Change the Weather History Date:

Thursday, December 5, 2013

  Actual Average Record
Temperature  
Mean Temperature 35 °F 23 °F  
Max Temperature 50 °F 33 °F 55 °F (1999)
Min Temperature 19 °F 14 °F -18 °F (2003)
Degree Days  
Heating Degree Days 30 42  
Month to date heating degree days 189 204  
Since 1 July heating degree days 2575 2479  
Cooling Degree Days 0 0  
Month to date cooling degree days 0  
Year to date cooling degree days 114  
Moisture  
Dew Point 37 °F    
Average Humidity 92    
Maximum Humidity 100    
Minimum Humidity 83    
Precipitation  
Precipitation 0.02 in 0.10 in 1.20 in (1950)
Month to date precipitation 0.06 0.47  
Year to date precipitation 38.91 35.70  
Sea Level Pressure  
Sea Level Pressure 29.89 in    
Wind  
Wind Speed 9 mph (SW)    
Max Wind Speed 21 mph    
Max Gust Speed 28 mph    
Visibility 8 miles    
Events Rain    
T = Trace of Precipitation, MM = Missing Value Source: NWS Daily Summary

Daily Weather History Graph

Daily Weather History Graph

Search for Another Location

Airport or City:

Trip Planner

Search our weather history database for the weather conditions in past years. The results will help you decide how hot, cold, wet, or windy it might be!

Date:

Astronomy

Dec. 05, 2013 Rise Set
Actual Time 7:17 AM EST 4:17 PM EST
Civil Twilight 6:44 AM EST 4:50 PM EST
Nautical Twilight 6:07 AM EST 5:27 PM EST
Astronomical Twilight 5:32 AM EST 6:02 PM EST
Moon 9:32 AM EST (12/5) 7:39 PM EST (12/5)
Length of Visible Light 10h 06m
Length of Day
9h 00m
Waxing Crescent, 10% of the Moon is Illuminated
Dec 5
Waxing Crescent
Dec 9
First Quarter
Dec 17
Full
Dec 25
Last Quarter
Jan 1
New

Hourly Weather History & Observations

Time (EST) Temp. Windchill Dew Point Humidity Pressure Visibility Wind Dir Wind Speed Gust Speed Precip Events Conditions
12:51 AM 21.0 °F - 19.9 °F 96% 30.07 in 8.0 mi Calm Calm - N/A   Clear
1:51 AM 23.0 °F - 21.9 °F 96% 30.06 in 8.0 mi Calm Calm - N/A   Clear
2:51 AM 21.9 °F - 19.9 °F 92% 30.04 in 7.0 mi Calm Calm - N/A   Clear
3:13 AM 23.0 °F - 21.2 °F 93% 29.97 in 8.0 mi Calm Calm - N/A   Mostly Cloudy
3:42 AM 23.0 °F - 21.2 °F 93% 29.96 in 8.0 mi Calm Calm - N/A   Mostly Cloudy
3:49 AM 23.0 °F - 21.2 °F 93% 29.95 in 8.0 mi Calm Calm - N/A   Mostly Cloudy
3:51 AM 23.0 °F - 21.9 °F 96% 30.01 in 8.0 mi Calm Calm - N/A   Mostly Cloudy
4:02 AM 23.0 °F - 21.2 °F 93% 29.94 in 8.0 mi Calm Calm - N/A   Scattered Clouds
4:40 AM 26.6 °F - 26.6 °F 100% 29.92 in 7.0 mi Calm Calm - N/A   Mostly Cloudy
4:49 AM 26.6 °F - 24.8 °F 93% 29.90 in 8.0 mi Calm Calm - N/A   Scattered Clouds
4:51 AM 26.1 °F - 25.0 °F 96% 29.96 in 8.0 mi Calm Calm - N/A   Scattered Clouds
5:33 AM 33.8 °F 29.6 °F 33.8 °F 100% 29.90 in 7.0 mi SSW 4.6 mph - N/A   Mostly Cloudy
5:51 AM 39.9 °F 35.1 °F 37.0 °F 89% 29.94 in 9.0 mi South 6.9 mph - N/A   Overcast
6:51 AM 42.1 °F 34.9 °F 39.0 °F 89% 29.93 in 9.0 mi SSW 13.8 mph - N/A   Overcast
7:51 AM 44.1 °F 37.7 °F 39.9 °F 85% 29.91 in 8.0 mi South 12.7 mph - N/A   Overcast
8:51 AM 43.0 °F 36.0 °F 39.9 °F 89% 29.91 in 9.0 mi SSW 13.8 mph - N/A   Overcast
9:51 AM 44.1 °F 37.7 °F 41.0 °F 89% 29.91 in 10.0 mi SSW 12.7 mph - N/A   Overcast
10:51 AM 45.0 °F 38.5 °F 42.1 °F 90% 29.88 in 10.0 mi SSW 13.8 mph 21.9 mph N/A   Overcast
11:38 AM 46.4 °F 41.5 °F 42.8 °F 87% 29.82 in 10.0 mi SW 10.4 mph 25.3 mph N/A   Overcast
11:51 AM 45.0 °F 38.5 °F 43.0 °F 93% 29.86 in 6.0 mi SW 13.8 mph 20.7 mph 0.00 in Rain Light Rain
12:51 PM 46.0 °F 40.6 °F 43.0 °F 89% 29.85 in 9.0 mi SW 11.5 mph 20.7 mph 0.00 in   Overcast
2:51 PM 46.9 °F - 45.0 °F 93% 29.83 in 8.0 mi SSW 10.4 mph - N/A   Overcast
3:51 PM 48.0 °F - 46.0 °F 93% 29.83 in 7.0 mi SSW 10.4 mph - N/A   Overcast
4:51 PM 48.9 °F - 46.0 °F 90% 29.81 in 8.0 mi SSW 10.4 mph - N/A   Overcast
5:51 PM 48.9 °F - 46.0 °F 90% 29.79 in 9.0 mi SSW 15.0 mph 21.9 mph N/A   Overcast
6:51 PM 50.0 °F - 46.9 °F 89% 29.79 in 9.0 mi SW 13.8 mph - N/A   Overcast
7:15 PM 50.0 °F - 46.4 °F 87% 29.77 in 9.0 mi SW 12.7 mph 23.0 mph N/A   Overcast
7:36 PM 50.0 °F - 46.4 °F 87% 29.76 in 9.0 mi SW 13.8 mph - N/A   Overcast
7:51 PM 50.0 °F - 46.9 °F 89% 29.80 in 9.0 mi WSW 11.5 mph - N/A   Overcast
8:41 PM 48.2 °F - 46.4 °F 93% 29.80 in 3.0 mi WSW 8.1 mph - 0.01 in Rain Light Rain
8:51 PM 48.9 °F - 46.9 °F 93% 29.83 in 4.0 mi WSW 15.0 mph 25.3 mph 0.02 in Rain Light Rain
9:20 PM 44.6 °F 38.4 °F 42.8 °F 93% 29.83 in 8.0 mi WSW 12.7 mph 25.3 mph 0.00 in   Overcast
9:51 PM 44.1 °F 39.5 °F 42.1 °F 93% 29.84 in 7.0 mi WSW 8.1 mph - 0.00 in   Overcast
10:16 PM 42.8 °F 38.6 °F 41.0 °F 93% 29.82 in 6.0 mi WSW 6.9 mph - N/A   Overcast
10:40 PM 44.6 °F 40.2 °F 41.0 °F 87% 29.85 in 6.0 mi WSW 8.1 mph - N/A   Overcast
10:51 PM 43.0 °F 38.8 °F 41.0 °F 93% 29.89 in 6.0 mi WSW 6.9 mph - N/A   Overcast
11:28 PM 42.8 °F 39.3 °F 39.2 °F 87% 29.87 in 4.0 mi WSW 5.8 mph - 0.00 in Rain Light Rain
11:51 PM 41.0 °F 36.4 °F 39.0 °F 93% 29.90 in 6.0 mi WSW 6.9 mph - 0.00 in   Overcast